FW0639 Weather Reports


time (UTC)temp
C
wind
direction
speed
KPH
gust
KPH
rain 1hr
cm
rain 24hr
cm
rain mn
cm
humidity
%
barometer
mb
20260901110229 10 193 0.0 0.0 0.00 0.00 0.00 74 1010.8
20260901105212 10 193 0.0 0.0 0.00 0.00 0.00 72 1010.9
20260901104205 10 193 0.0 0.0 0.00 0.00 0.00 71 1010.9
20260901103137 10 193 0.0 0.0 0.00 0.00 0.00 72 1011.1
20260901102135 10 193 0.0 0.0 0.00 0.00 0.00 70 1011.2
20260901101137 10 193 0.0 0.0 0.00 0.00 0.00 69 1011.2
20260901100154 11 193 0.0 3.2 0.00 0.00 0.00 69 1011.2
20260901095141 11 193 0.0 0.0 0.00 0.00 0.00 69 1011.3
20260901094132 11 193 0.0 0.0 0.00 0.00 0.00 69 1011.0
20260901092016 10 193 0.0 0.0 0.00 0.00 0.00 70 1011.2
20260901091012 10 193 0.0 0.0 0.00 0.00 0.00 72 1011.2
20260901085958 10 193 0.0 0.0 0.00 0.00 0.00 73 1011.3
20260901084948 10 193 0.0 0.0 0.00 0.00 0.00 73 1011.4
20260901082803 11 193 0.0 0.0 0.00 0.00 0.00 71 1011.5
20260901080616 11 193 0.0 0.0 0.00 0.00 0.00 68 1011.7
20260901072251 12 193 0.0 0.0 0.00 0.00 0.00 63 1012.3
20260901071259 13 193 0.0 0.0 0.00 0.00 0.00 62 1012.2
20260901070254 13 193 0.0 1.6 0.00 0.00 0.00 60 1012.3
20260901065239 13 193 0.0 0.0 0.00 0.00 0.00 59 1012.2
20260901063144 13 193 0.0 3.2 0.00 0.00 0.00 57 1012.3
20260901062133 13 193 0.0 3.2 0.00 0.00 0.00 57 1012.4
20260901061106 14 193 0.0 0.0 0.00 0.00 0.00 57 1012.5
20260901060121 14 193 0.0 0.0 0.00 0.00 0.00 58 1012.5
20260901055117 14 193 0.0 9.7 0.00 0.00 0.00 57 1012.6
20260901052914 13 193 0.0 6.4 0.00 0.00 0.00 58 1012.7
20260901051915 13 193 0.0 4.8 0.00 0.00 0.00 59 1012.6
20260901050857 13 193 0.0 0.0 0.00 0.00 0.00 59 1012.6
20260901045843 13 193 0.0 6.4 0.00 0.00 0.00 59 1012.7
20260901044816 13 193 0.0 0.0 0.00 0.00 0.00 60 1012.7
20260901043839 13 193 0.0 0.0 0.00 0.00 0.00 59 1012.7
20260901042901 13 193 0.0 0.0 0.00 0.00 0.00 61 1012.7
20260901040726 12 193 0.0 1.6 0.00 0.00 0.00 68 1012.7
20260901035739 13 193 0.0 0.0 0.00 0.00 0.00 66 1012.8
20260901034801 13 193 0.0 0.0 0.00 0.00 0.00 66 1012.7
20260901033808 13 355 0.0 0.0 0.00 0.00 0.00 65 1012.7
20260901032755 14 349 0.0 0.0 0.00 0.00 0.00 63 1012.6
20260901031819 15 348 0.0 0.0 0.00 0.00 0.00 61 1012.6
20260901030823 15 343 0.0 0.0 0.00 0.00 0.00 59 1012.5
20260901025832 16 343 0.0 0.0 0.00 0.00 0.00 57 1012.4
20260901024823 17 341 0.0 0.0 0.00 0.00 0.00 53 1012.2
20260901023811 17 340 0.0 0.0 0.00 0.00 0.00 48 1011.9
20260901022754 18 338 0.0 0.0 0.00 0.00 0.00 45 1011.7
20260901021737 18 338 0.0 0.0 0.00 0.00 0.00 42 1011.5
20260901020719 19 338 0.0 0.0 0.00 0.00 0.00 45 1011.5
20260901015652 20 337 0.0 0.0 0.00 0.00 0.00 44 1011.5
20260901014640 20 337 0.0 0.0 0.00 0.00 0.00 41 1011.4
20260901013639 20 336 0.0 0.0 0.00 0.00 0.00 40 1011.2
20260901011504 21 336 0.0 0.0 0.00 0.00 0.00 36 1011.2
20260901010437 22 337 0.0 0.0 0.00 0.00 0.00 37 1011.2
20260901005428 22 337 0.0 0.0 0.00 0.00 0.00 36 1011.3
20260901004418 22 337 0.0 0.0 0.00 0.00 0.00 37 1011.3
20260901003427 22 337 0.0 1.6 0.00 0.00 0.00 36 1011.3
20260901001248 22 337 0.0 0.0 0.00 0.00 0.00 40 1011.4
20260901000251 22 337 0.0 0.0 0.00 0.00 0.00 38 1011.5
20260831235225 22 338 0.0 4.8 0.00 0.00 0.00 34 1011.6
20260831234241 22 344 0.0 3.2 0.00 0.00 0.00 38 1011.5
20260831233242 22 192 0.0 6.4 0.00 0.00 0.00 35 1011.7
20260831232225 23 193 0.0 6.4 0.00 0.00 0.00 35 1011.8
20260831231237 23 193 0.0 6.4 0.00 0.00 0.00 35 1011.8
20260831230247 23 193 0.0 6.4 0.00 0.00 0.00 35 1011.9
20260831222942 23 193 0.0 3.2 0.00 0.00 0.00 37 1012.1
20260831220742 23 193 0.0 4.8 0.00 0.00 0.00 36 1012.1
20260831215715 23 192 1.6 11.3 0.00 0.00 0.00 36 1012.2
20260831214732 23 192 1.6 11.3 0.00 0.00 0.00 35 1012.3
20260831213713 23 193 0.0 4.8 0.00 0.00 0.00 36 1012.4
20260831212735 23 193 0.0 6.4 0.00 0.00 0.00 33 1012.3
20260831211703 23 193 1.6 6.4 0.00 0.00 0.00 38 1012.6
20260831205605 22 352 0.0 8.0 0.00 0.00 0.00 34 1012.8
20260831204542 22 340 1.6 8.0 0.00 0.00 0.00 35 1012.9
20260831203545 22 323 0.0 8.0 0.00 0.00 0.00 35 1013.0
20260831202528 22 337 1.6 0.0 0.00 0.00 0.00 36 1013.2
20260831201533 22 338 0.0 4.8 0.00 0.00 0.00 40 1013.3
20260831200519 22 338 1.6 9.7 0.00 0.00 0.00 38 1013.4
20260831195516 22 337 1.6 9.7 0.00 0.00 0.00 39 1013.5
20260831194514 22 337 1.6 6.4 0.00 0.00 0.00 35 1013.6
20260831193458 21 343 1.6 6.4 0.00 0.00 0.00 38 1013.9
20260831192446 21 337 1.6 11.3 0.00 0.00 0.00 37 1014.1
20260831191435 20 338 1.6 11.3 0.00 0.00 0.00 38 1014.3
20260831185359 21 337 1.6 11.3 0.00 0.00 0.00 38 1014.5
20260831184411 21 337 1.6 11.3 0.00 0.00 0.00 40 1014.5
20260831183425 20 193 1.6 9.7 0.00 0.00 0.00 39 1014.6
20260831182429 20 193 1.6 9.7 0.00 0.00 0.00 38 1014.6
20260831181444 20 193 1.6 8.0 0.00 0.00 0.00 40 1014.7
20260831180420 20 193 1.6 11.3 0.00 0.00 0.00 40 1014.8
20260831175420 19 194 1.6 11.3 0.00 0.00 0.00 41 1014.8
20260831174409 19 347 1.6 9.7 0.00 0.00 0.00 41 1014.9
20260831173356 19 338 1.6 12.9 0.00 0.00 0.00 41 1015.0
20260831171225 18 339 1.6 14.5 0.00 0.00 0.00 43 1015.2
20260831165039 17 337 1.6 14.5 0.00 0.00 0.00 46 1015.3
20260831164021 17 341 3.2 14.5 0.00 0.00 0.00 43 1015.3
20260831163025 17 338 1.6 16.1 0.00 0.00 0.00 45 1015.2
20260831160906 16 181 1.6 9.7 0.00 0.00 0.00 49 1015.3
20260831153636 14 188 0.0 6.4 0.00 0.00 0.00 51 1015.2
20260831152620 14 188 0.0 4.8 0.00 0.00 0.00 55 1015.4
20260831151554 13 188 1.6 6.4 0.00 0.00 0.00 53 1015.4
20260831150530 12 188 1.6 8.0 0.00 0.00 0.00 55 1015.2
20260831145539 11 188 0.0 8.0 0.00 0.00 0.00 62 1015.2
20260831143423 10 187 0.0 0.0 0.00 0.00 0.00 73 1015.2
20260831142413 9 4 0.0 0.0 0.00 0.00 0.00 73 1015.0
20260831141434 8 7 0.0 0.0 0.00 0.00 0.00 74 1015.0
20260831140452 8 24 0.0 0.0 0.00 0.00 0.00 75 1014.9
20260831135453 7 31 0.0 0.0 0.00 0.00 0.00 73 1014.8
20260831134445 7 190 0.0 0.0 0.00 0.00 0.00 75 1014.8
20260831132312 7 191 0.0 0.0 0.00 0.00 0.00 72 1014.4
20260831130132 7 191 0.0 0.0 0.00 0.00 0.00 69 1014.2
20260831123926 8 191 0.0 0.0 0.00 0.00 0.00 66 1013.6
20260831122935 8 191 0.0 0.0 0.00 0.00 0.00 66 1013.6
20260831121954 8 191 1.6 6.4 0.00 0.00 0.00 64 1013.4
20260831121014 8 191 0.0 6.4 0.00 0.00 0.00 66 1013.5
20260831120004 8 191 0.0 0.0 0.00 0.00 0.00 67 1013.4
20260831115002 8 191 0.0 0.0 0.00 0.00 0.00 66 1013.3
20260831113934 8 191 0.0 3.2 0.00 0.00 0.00 67 1013.2
20260831112937 8 191 0.0 1.6 0.00 0.00 0.00 68 1013.0
20260831110814 7 191 0.0 0.0 0.00 0.00 0.00 71 1012.8